Regional Weather Roundup
Issued by NWS

Home | Current Version | Previous Version | Text Only | Print | Product List | Glossary Off
Versions: 1 2 3 4 5 6 7 8 9 10 11 12 13 14 15 16 17 18 19 20 21 22 23 24 25 26 27 28 29 30 31 32 33 34 35 36 37 38 39 40 41 42 43 44 45 46 47 48 49 50

896
ASUS45 KBOU 291607
RWRCO

WEATHER ROUNDUP FOR COLORADO
NATIONAL WEATHER SERVICE DENVER/BOULDER CO
1000 AM MDT SUN MAY 29 2016

NOTE: "FAIR" INDICATES FEW OR NO CLOUDS BELOW 12000 FEET WITH NO
SIGNIFICANT WEATHER AND/OR OBSTRUCTIONS TO VISIBILITY.

COZ001>005-013-030-031-291700-
...NORTHWEST COLORADO...

CITY           SKY/WX    TMP DP  RH WIND       PRES   REMARKS
CRAIG          FAIR      62  40  44 VRB3      30.22F
HAYDEN         NOT AVBL
MEEKER         FAIR      60  35  39 CALM      30.22F
MOUNT WERNER   NOT AVBL
STEAMBOAT SPGS FAIR      55  38  52 CALM      30.25F
WALDEN         NOT AVBL
$$

COZ006>008-011-291700-
...WEST CENTRAL VALLEYS...

CITY           SKY/WX    TMP DP  RH WIND       PRES   REMARKS
GRAND JUNCTION FAIR      66  35  31 SE12      30.16S
MONTROSE       FAIR      64  37  36 N7        30.21F
EAGLE          SUNNY     54  34  47 CALM      30.29F
RIFLE          FAIR      61  37  41 CALM      30.20F
DELTA          FAIR      68  33  28 E3        30.19F
NUCLA          FAIR      63  32  31 CALM      30.23S
$$

COZ017>023-064>068-291700-
...SOUTHWEST COLORADO...

CITY           SKY/WX    TMP DP  RH WIND       PRES   REMARKS
DURANGO        FAIR      67  31  26 E7        30.23S
CORTEZ         FAIR      70  31  23 CALM      30.17F
PAGOSA SPRINGS FAIR      64  24  22 CALM      30.30S
TELLURIDE      FAIR      61  26  26 CALM      30.36F
WOLF CREEK PAS FAIR      45  21  39 SW12      30.55S
$$

COZ009-010-012-014-032>034-037-058>063-291700-
...CENTRAL COLORADO...

CITY           SKY/WX    TMP DP  RH WIND       PRES   REMARKS
ASPEN          FAIR      58  31  35 N5        30.28F
BUENA VISTA    FAIR      56  28  35 E3        30.33F
COPPER MTN     NOT AVBL
BERTHOUD PASS  FAIR      36  28  75 SW10G20   30.52S
COTTONWOOD PAS FAIR      54  28  37 E6        30.41S
GUNNISON       FAIR      54  32  43 CALM      30.35F
KREMMLING      FAIR      54  34  47 E5        30.31F
LEADVILLE      FAIR      50  22  33 VRB5      30.39F
MONARCH PASS   FAIR      41  27  56 SW15G21   30.61F
SALIDA         FAIR      54  32  43 CALM      30.39F
SUNLIGHT       FAIR      50  30  46 CALM      30.48R
WILKERSON PASS FAIR      45  30  57 SW7       30.50S
$$

COZ069>075-291700-
...SAN LUIS VALLEY/SANGRE DE CRISTO MOUNTAINS...

CITY           SKY/WX    TMP DP  RH WIND       PRES   REMARKS
ALAMOSA        FAIR      61  37  41 VRB3      30.31F
LA VETA PASS   FAIR      54  28  37 CALM      30.45S
SAGUACHE       FAIR      57  34  41 CALM      30.33F
$$

COZ035-036-038>040-291700-
...NORTHERN COLORADO FRONT RANGE...

CITY           SKY/WX    TMP DP  RH WIND       PRES   REMARKS
DENVER INTL AP FAIR      67  41  38 W7        30.17F
DMNS CITY PARK   N/A     71  36  27 N9        30.15F
AURORA         MOSUNNY   67  39  36 SW6       30.18F
FRONT RANGE AP MOSUNNY   66  45  45 SW6       30.18F
ERIE MUNI ARPT FAIR      67  39  36 CALM      30.16F
BOULDER MUN AP FAIR      64  39  39 CALM      30.16F
CENTENNIAL     FAIR      67  37  33 CALM      30.19F
BROOMFIELD     MOSUNNY   66  37  34 CALM      30.19F
FORT COLLINS   FAIR      64  45  48 E3        30.17F
LONGMONT       FAIR      69  40  35 E3        30.17F
$$

COZ041-046-047-076>085-087-088-291700-
...PIKES PEAK/PALMER DIVIDE AND SOUTHERN FOOTHILLS...

CITY           SKY/WX    TMP DP  RH WIND       PRES   REMARKS
COLO. SPRINGS  PTSUNNY   64  40  41 CALM      30.23F
A. F. ACADEMY  FAIR      63  39  42 CALM      30.23F
SCHRIEVER AFB  NOT AVBL
ELLICOTT       FAIR     N/A N/A N/A SW3       30.21F
FALCON         FAIR      63  37  38 S7        30.27F
FORT CARSON    FAIR      62  43  49 CALM      30.21S
LIMON          FAIR      64  50  60 S7        30.19F
MONUMENT HILL  FAIR      61  39  44 S8        30.27S
TRINIDAD       FAIR      65  39  38 VRB5      30.22F
$$

COZ042>045-048>051-090-091-291700-
...NORTHEAST COLORADO...

CITY           SKY/WX    TMP DP  RH WIND       PRES   REMARKS
GREELEY ARPT   FAIR      66  46  48 CALM      30.16F
AKRON          FAIR      68  48  48 SW6       30.16F
BURLINGTON     FAIR      75  48  38 S22       30.15F
WRAY           NOT AVBL
STERLING       FAIR      66  52  59 SW6       30.14S
HOLYOKE        NOT AVBL
FORT MORGAN    FAIR      67  47  48 CALM      30.15F
$$

COZ086-089-092>099-291700-
...SOUTHEAST COLORADO...

CITY           SKY/WX    TMP DP  RH WIND       PRES   REMARKS
PUEBLO         FAIR      67  48  50 SW5       30.17F
LA JUNTA       FAIR      69  49  48 SW9       30.16F
LAMAR          FAIR      77  51  40 VRB7G16   30.10F
SPRINGFIELD      N/A     69  53  56 SW16G22   30.17R
$$




USA.gov is the U.S. government's official web portal to all federal, state and local government web resources and services.